"Pseudo-MPEC" for C4V28F2
Created 2021 Mar 4 16:07:03 UT using Find_Orb
Click here for an explanation of pseudo-MPECs
Astrometry: C4V28F2 C2021 01 23sJF7aV6U5@+k6:q(p148,+.A_sXBv:nI:`JP5_p@P`4i^g#vsb_o
F51 C4V28F2 C2021 01 23H2'D.u8W9,qsVGb\F$JHm.iK+=3Df5Vm4BO53F/CmK_1.,jX.7gR
F51 C4V28F2 C2021 01 23bLIPJ5e\yx$ZM9mM6@(P,66PHxgiPPoyZ?hyyJSwN3$BQxpLF2p6
F51 C4V28F2 C2021 02 07.43217613 07 57.40 +03 02 12.3 ~27Db 20.86GVNEOCPG96 C4V28F2 C2021 02 07.43728113 07 57.11 +03 02 15.0 ~27Db 21.42GVNEOCPG96 C4V28F2 C2021 02 07.44238513 07 56.76 +03 02 17.4 ~27Db 20.85GVNEOCPG96 C4V28F2 C2021 02 07.45218313 07 56.07 +03 02 21.5 ~27Dq 21.37GVNEOCPG96 C4V28F2 C2021 02 07.46035513 07 55.55 +03 02 24.8 ~27Dq 20.76GVNEOCPG96 C4V28F2 C2021 02 07.46819013 07 55.02 +03 02 28.5 ~27Dq 21.16GVNEOCPG96 C4V28F2 C2021 02 07.47616913 07 54.48 +03 02 32.4 ~27Dq 20.94GVNEOCPG96 C4V28F2 C2021 02 07.53292913 07 50.69 +03 02 57.2 ~27Dq 20.91GVNEOCPG96 C4V28F2 C2021 02 07.54174913 07 50.07 +03 03 01.1 ~27Dq 21.23GVNEOCPG96 C4V28F2 C2021 02 07.55022113 07 49.52 +03 03 05.1 ~27Dq 20.66GVNEOCPG96 C4V28F2 C2021 02 07bs5Ob?YXsmwamQ2FN:Y-6_^i/dIVP@l8m[BU!UgtI?[pGbDAQRZj
F52 C4V28F2 C2021 02 07Ai.ky_eFQX'sg()URt8nD_0B!+N.eOTt.e9Tqq[j_dMn@%BXMfr]
F52 C4V28F2 C2021 02 07.Mh\[-Te[9JS$q$_=#i1DoSVvsN4(VkdsVTJP.#.'mBEq10oZdKW
F52 C4V28F2 C2021 02 077k?0G^!11X7e\As_OS@wu?HaP=Anhx+BC%Rk=TNfnmHi@ast[pI!
F52 C4V28F2 KC2021 02 08.45170913 06 49.00 +03 09 49.6 ~28BM 20.73GVNEOCPI52 C4V28F2 KC2021 02 08.45478113 06 48.76 +03 09 50.9 ~28BM 21.25GVNEOCPI52 C4V28F2 KC2021 02 08.45785213 06 48.62 +03 09 51.8 ~28BM VNEOCPI52 C4V28F2 KC2021 02 09.52212413 05 35.14 +03 17 58.8 ~29Cq 21.18GVNEOCPI52 C4V28F2 KC2021 02 09.52542013 05 34.85 +03 18 00.6 ~29Cq 21.01GVNEOCPI52 C4V28F2 KC2021 02 09.52871613 05 34.60 +03 18 01.8 ~29Cq 20.62GVNEOCPI52 C4V28F2 |C2021 02 110+5RS#*8FN=RsZ,ObLC
AstrometryUNgv5`pq0?L(*W=60@t@@su
H06 C4V28F2 |C2021 02 11TYK=`Hr4iH$Ou98!AvX82BY`DScL^s`cjF2Z!e^+]3xu4@KFX]Bk
H06 C4V28F2 KC2021 02 11.47717013 03 14.93 +03 33 20.9 ~2BC7 20.89GVNEOCPI52 C4V28F2 KC2021 02 11.48221713 03 14.56 +03 33 23.1 ~2BC7 20.72GVNEOCPI52 C4V28F2 KC2021 02 11.48473913 03 14.36 +03 33 24.4 ~2BC7 21.11GVNEOCPI52 C4V28F2 |C2021 02 13DAEa_KE2ec1OsF*^^iALhq:bBa@Z]fX$e?djPV[-A0A;d*_,rVFZ
807 C4V28F2 |C2021 02 13SaU3EuE#`AP\r`rY((_IC#)(b5s65LQj9P?8T%Vu/lGpdRm?!jB_
807 C4V28F2 |C2021 02 13r_NM2db8p,QFKCT*y*9EQc02;WQq!NVtg*GyIc7soB?teN$Xqcc[
807 C4V28F2 KC2021 02 13.42405213 00 48.59 +03 49 12.4 ~2DBM 21.80GVNEOCPI52 C4V28F2 KC2021 02 13.42978513 00 48.19 +03 49 15.4 ~2DBM 20.27GVNEOCPI52 C4V28F2 KC2021 02 13.44376513 00 47.05 +03 49 22.9 ~2DBM 20.16GVNEOCPI52 C4V28F2 bC2021 02 14MOP^[G`/W4v[O?
redacted;xf8mb1AM_yE=pb[+60\Nk]4ToH*1]
L01 C4V28F2 bC2021 02 14YP[yh(aSIh930svkXfVn:GR)!Q`2i@J?*-[]0IP3]a`3,yb3md?v
L01 C4V28F2 bC2021 02 14@@(RqFnu@R\!im$ta[@NA^'*qOH6Kh0-HXo0.ijD`]HZ=do]86vt
L01 C4V28F2 C2021 02 16tmIB^NdH\3en\O%lmI,*qf5[_NK5F]KBAyaC5t.*0^,5*y^6*/,E
F51 C4V28F2 C2021 02 167EM[Ob_9SF\itEs^)%s3Y1#=tY#spF27OO/)hH]h_*ygXMTk8Wbf
F51 C4V28F2 C2021 02 166e`,h`rY6!isikV1*6M4i'UT/mFfV3usb=3[w#6fwZ
click1-kDs
F51 C4V28F2 C2021 02 16*3`5/o]U\mh8h;!,O6],L#),47R*5K5H%u84DOjZB2s0(
heretp1
F51 C4V28F2 KC2021 02 19.46380612 52 30.68 +04 41 53.8 ~2JBb 21.23GVNEOCPI52 C4V28F2 KC2021 02 19.46654212 52 30.40 +04 41 56.3 ~2JBb 20.55GVNEOCPI52 C4V28F2 KC2021 02 19.46851412 52 30.18 +04 41 57.0 ~2JBb 20.27GVNEOCPI52 C4V28F2 KC2021 02 20.35275412 51 12.01 +04 50 03.2 ~2K97 VNEOCPI52 C4V28F2 KC2021 02 20.35634212 51 11.68 +04 50 05.7 ~2K97 VNEOCPI52 C4V28F2 KC2021 02 20.36078212 51 11.26 +04 50 08.7 ~2K97 VNEOCPI52 C4V28F2 KC2021 02 20.36437212 51 11.01 +04 50 10.2 ~2K97 20.49GVNEOCPI52 C4V28F2 |C2021 02 21d-=6dGwy8)]MTrOYGAHlp8Ll$y#,MMq755(y6YR(b6/p.^)0ZQ*C
807 C4V28F2 |C2021 02 21(wH(T.U[GpoOp_bgJ8v@!4#1nUgSxoPQ^ca?C.687`wyb#!:wV(g
807 C4V28F2 |C2021 02 21QUT*.#4b
forUrK7n$M`;g7nPUqQInaRHN)X\gf_!(:sT0048c)%Q
807 C4V28F2 KC2021 02 22/VH:Yp!1sO:Qe'qK\y?U-P
explanation@02skMS!]V;=LqNyFCP
N51 C4V28F2 KC2021 02 222$G7a!Vp.`6r%k'nsZIV6ds=5H\EGHIH90Io'20q*itPJBI*kYu/
N51 C4V28F2 KC2021 02 22SlEUb[c)#2vh[EoGU@RD:\n\_S'(7KN\j=ZT^fvL!uuIQ;UO0kxF
N51 C4V28F2 KC2021 02 22P+NH3?t;!T+r59rM%HS[CN^NCmX-^VTha\jN!dCV?NN.B[G4\y@N
N51 C4V28F2 KC2021 02 2293,GKUmW7^+lNHAVPORPdRR6QnWY.D?UJ5d=l!UQGXYoyjE)BOGv
N51 C4V28F2 KC2021 02 22[3fHjFVh?e8UOVG*1SQC2wyE('Ac'TPPxv`goL%JU5L:!%ED7Any
N51 C4V28F2 KC2021 02 22!9()ZEdiu:gK!.A'4E6#KP$*v#vvDjOF)1)=Wm`,b(X=6yDJx4(J
N51 C4V28F2 KC2021 02 23.33617712 46 37.21 +05 18 11.9 ~2N8b 21.05GVNEOCPI52 C4V28F2 KC2021 02 23.34012812 46 36.80 +05 18 14.3 ~2N8b 20.78GVNEOCPI52 C4V28F2 KC2021 02 23.34210412 46 36.73 +05 18 15.8 ~2N8b VNEOCPI52 C4V28F2 KC2021 03 04.29578112 31 21.78 +06 48 09.5 ~347b 18.93GVNEOCPI52 C4V28F2 KC2021 03 04.29830012 31 21.65 +06 48 10.2 ~347b 19.16GVNEOCPI52 C4V28F2 KC2021 03 04.30081712 31 21.58 +06 48 09.6 ~347b 19.27GVNEOCPI52 Station data: (807) Cerro Tololo Observatory, La Serena (S30.169136 W70.805900) Chile. (F51) Pan-STARRS 1, Haleakala (N20.707235 W156.255910) US/Hawaii. Observers N. Primak, A. Schultz, S. Watters, J. Thiel, T. Goggia. Measurer PS1 Science Consortium. 1.8-m Ritchey-Chrétien + CCD. (F52) Pan-STARRS 2, Haleakala (N20.707384 W156.255910) US/Hawaii. 1.8-m Ritchey-Chrétien + CCD. (G96) Mt. Lemmon Survey (N32.442754 W110.788720) US/Arizona. Observers T. A. Pruyne, B. M. Africano, E. J. Christensen, G. A. Farneth, D. C. Fuls, A. R. Gibbs, A. D. Grauer, H. Gröller, J. A. Johnson, R. A. Kowalski, S. M. Larson, G. J. Leonard, D. Rankin, R. L. Seaman, F. C. Shelly. 1.5-m reflector + 10K CCD. (H06) RAS Observatory, Mayhill (N32.903325 W105.528700) US/New Mexico. Observers E. Guido, G. Sostero, V. Gonano, L. Donato. (I52) Steward Observatory, Mt. Lemmon Station (N32.442547 W110.788920) US/Arizona. Observers T. A. Pruyne, B. M. Africano, E. J. Christensen, G. A. Farneth, D. C. Fuls, A. R. Gibbs, A. D. Grauer, H. Gröller, J. A. Johnson, R. A. Kowalski, S. M. Larson, G. J. Leonard, D. Rankin, R. L. Seaman, F. C. Shelly. 1.0-m reflector + CCD. (L01) Višnjan Observatory, Tičan (N45.290900 E13.749300) Croatia. Observers K. Korlević, E. Pettarin. Measurer E. Pettarin. 1.0-m f/2.9 reflector + CCD. (N51) GROWTH India Telescope, IAO, Hanle (N32.779244 E78.964610) India. Orbital elements: C4V28F2 Perihelion 2021 Nov 14.065371 +/- 0.523182 TT = 1:34:08 (JD 2459532.565371) Epoch 2021 Mar 4.0 TT = JDT 2459277.5 AutoNEOCP M 359.98774152 +/- 0.0294609 (J2000 ecliptic) n 0.00004806 +/- 7.67922e-5 Peri. 203.68495 +/- 0.0865187 a 749.225795 +/- 840.031 Node 332.18237 +/- 0.0190639 e 0.9956352 +/- 0.00469287 Incl. 164.61321 +/- 0.0088410 P 20507 H 14.8 G 0.15 U 6.4 q 3.27015735 +/- 0.000983367 Q 1495.18143 +/- 481.411 From 64 observations 2021 Jan. 23-Mar. 4; mean residual 0".60
Residuals in arcseconds: 210123 F51 .14- .26- 210209 I52 .29- .25- 210220 I52 1.1+ 1.3- 210123 F51 .14+ .11+ 210211 H06 .52- .03- 210220 I52 1.0+ .75- 210123 F51 .00 .01- 210211 H06 .11- .05+ 210220 I52 .77+ .22- 210207 G96 .62- .32- 210211 I52 .41- .17+ 210220 I52 1.9+ .71- 210207 G96 .16+ .12+ 210211 I52 .34- .05- 210221 807 .41- .48- 210207 G96 .05+ .25+ 210211 I52 .52- .04+ 210221 807 .33- .35- 210207 G96 .44- .01+ 210213 807 .15+ .20+ 210221 807 .06- .14- 210207 G96 .01- .31- 210213 807 .59+ .45+ 210222 N51 .69- .37+ 210207 G96 .07- .09- 210213 807 .03- .61+ 210222 N51 .77- .34+ 210207 G96 .13- .27+ 210213 I52 .22+ .52- 210222 N51 .77- .35+ 210207 G96 .24+ .11- 210213 I52 .92+ .38- 210222 N51 .74- .31+ 210207 G96 .16- .12- 210213 I52 .16+ .16+ 210222 N51 1.1- .10+ 210207 G96 .13+ .12+ 210214 L01 .08+ .35+ 210222 N51 .75- .54+ 210207 F52 .12+ .30- 210214 L01 .23- .42+ 210222 N51 .82- .14- 210207 F52 .08+ .12- 210214 L01 .06+ .50+ 210223 I52 .03+ .26- 210207 F52 .49- .39+ 210216 F51 .01+ .00 210223 I52 .45- .14- 210207 F52 .02- .29- 210216 F51 .10- .02- 210223 I52 1.3+ .22+ 210208 I52 .16+ .37+ 210216 F51 .01+ .06+ 210304 I52 2.4- 1.4+ 210208 I52 .26- .28+ 210216 F51 .09- .01- 210304 I52 .17- .55+ 210208 I52 .81+ .21- 210219 I52 .44+ .48- 210304 I52 2.9+ 1.6- 210209 I52 .81+ .20- 210219 I52 .12- .52+ 210209 I52 .04- .07+ 210219 I52 .79- .14+ Ephemerides (geocentric): Date (UTC) HH RA Dec delta r elong mag " sig PA ---- -- -- -- ------------- ----------- ------ ------ ----- --- ---- --- 2021 03 04 16 12 30 41.242 +06 52 00.88 3.1018 4.0370 157.7 20.7 .199 150 2021 03 04 17 12 30 36.666 +06 52 26.92 3.1012 4.0368 157.8 20.7 .201 150 2021 03 04 18 12 30 32.088 +06 52 52.97 3.1007 4.0366 157.9 20.7 .204 149 2021 03 04 19 12 30 27.507 +06 53 19.02 3.1002 4.0364 157.9 20.7 .206 149 2021 03 04 20 12 30 22.924 +06 53 45.08 3.0997 4.0362 158.0 20.7 .208 149 2021 03 04 21 12 30 18.338 +06 54 11.15 3.0992 4.0359 158.0 20.7 .211 149 2021 03 04 22 12 30 13.749 +06 54 37.22 3.0987 4.0357 158.1 20.7 .213 148 2021 03 04 23 12 30 09.158 +06 55 03.30 3.0982 4.0355 158.1 20.7 .215 148 2021 03 05 00 12 30 04.565 +06 55 29.39 3.0977 4.0353 158.2 20.7 .218 148 2021 03 05 01 12 29 59.969 +06 55 55.47 3.0971 4.0351 158.2 20.7 .220 148 2021 03 05 02 12 29 55.370 +06 56 21.57 3.0966 4.0349 158.3 20.7 .223 147 2021 03 05 03 12 29 50.769 +06 56 47.67 3.0961 4.0346 158.4 20.7 .225 147 2021 03 05 04 12 29 46.166 +06 57 13.78 3.0956 4.0344 158.4 20.7 .228 147 2021 03 05 05 12 29 41.560 +06 57 39.89 3.0951 4.0342 158.5 20.7 .230 147 2021 03 05 06 12 29 36.951 +06 58 06.01 3.0946 4.0340 158.5 20.7 .233 146 2021 03 05 07 12 29 32.340 +06 58 32.13 3.0941 4.0338 158.6 20.7 .235 146 2021 03 05 08 12 29 27.727 +06 58 58.26 3.0936 4.0335 158.6 20.7 .238 146 2021 03 05 09 12 29 23.111 +06 59 24.39 3.0931 4.0333 158.7 20.7 .241 146 2021 03 05 10 12 29 18.492 +06 59 50.53 3.0926 4.0331 158.8 20.7 .243 146 2021 03 05 11 12 29 13.871 +07 00 16.68 3.0921 4.0329 158.8 20.7 .246 145 2021 03 05 12 12 29 09.248 +07 00 42.83 3.0916 4.0327 158.9 20.7 .248 145 2021 03 05 13 12 29 04.622 +07 01 08.99 3.0911 4.0324 158.9 20.7 .251 145 2021 03 05 14 12 28 59.993 +07 01 35.15 3.0906 4.0322 159.0 20.7 .254 145 2021 03 05 15 12 28 55.362 +07 02 01.32 3.0901 4.0320 159.0 20.7 .256 145 2021 03 05 16 12 28 50.729 +07 02 27.49 3.0896 4.0318 159.1 20.7 .259 144 2021 03 05 17 12 28 46.093 +07 02 53.67 3.0891 4.0316 159.1 20.7 .262 144 2021 03 05 18 12 28 41.455 +07 03 19.85 3.0886 4.0313 159.2 20.7 .265 144 2021 03 05 19 12 28 36.814 +07 03 46.04 3.0881 4.0311 159.3 20.7 .267 144 2021 03 05 20 12 28 32.171 +07 04 12.23 3.0876 4.0309 159.3 20.6 .270 144 2021 03 05 21 12 28 27.525 +07 04 38.43 3.0871 4.0307 159.4 20.6 .273 144 2021 03 05 22 12 28 22.877 +07 05 04.63 3.0866 4.0305 159.4 20.6 .276 143 2021 03 05 23 12 28 18.226 +07 05 30.84 3.0861 4.0303 159.5 20.6 .278 143 2021 03 06 00 12 28 13.573 +07 05 57.05 3.0856 4.0300 159.5 20.6 .281 143 2021 03 06 01 12 28 08.917 +07 06 23.27 3.0852 4.0298 159.6 20.6 .284 143 2021 03 06 02 12 28 04.259 +07 06 49.49 3.0847 4.0296 159.7 20.6 .287 143 2021 03 06 03 12 27 59.599 +07 07 15.72 3.0842 4.0294 159.7 20.6 .290 143 2021 03 06 04 12 27 54.936 +07 07 41.95 3.0837 4.0292 159.8 20.6 .293 142 2021 03 06 05 12 27 50.271 +07 08 08.19 3.0832 4.0289 159.8 20.6 .296 142 2021 03 06 06 12 27 45.603 +07 08 34.43 3.0827 4.0287 159.9 20.6 .299 142 2021 03 06 07 12 27 40.933 +07 09 00.68 3.0822 4.0285 159.9 20.6 .302 142 2021 03 06 08 12 27 36.261 +07 09 26.93 3.0818 4.0283 160.0 20.6 .305 142 2021 03 06 09 12 27 31.586 +07 09 53.19 3.0813 4.0281 160.0 20.6 .308 142 2021 03 06 10 12 27 26.908 +07 10 19.45 3.0808 4.0278 160.1 20.6 .311 141 2021 03 06 11 12 27 22.229 +07 10 45.72 3.0803 4.0276 160.2 20.6 .314 141 2021 03 06 12 12 27 17.546 +07 11 11.99 3.0798 4.0274 160.2 20.6 .317 141 2021 03 06 13 12 27 12.862 +07 11 38.27 3.0793 4.0272 160.3 20.6 .320 141 2021 03 06 14 12 27 08.175 +07 12 04.55 3.0789 4.0270 160.3 20.6 .323 141 2021 03 06 15 12 27 03.485 +07 12 30.83 3.0784 4.0268 160.4 20.6 .326 141